Location: *
(8.3911°N, 10.3283°W)
Time: 16:50:58
(UTC+00:00)

Daily predictions for brighter satellites

Satellite Brightness Start Highest point End
(mag) Time Altitude Azimuth Time Altitude Azimuth Time Altitude Azimuth
Ariane H10+ 2.3 18:47:25 10° W 18:49:58 63° S 18:58:40 10° E
YAOGAN 1 3.8 18:50:52 10° SE 18:54:11 22° ENE 18:57:29 10° NNE
Meteor 1-12 Rocket 4.5 18:49:45 10° S 18:55:34 82° W 19:01:17 10° N
Cosmos 2333 Rocket 3.8 18:56:32 10° NE 18:59:39 15° ENE 19:02:45 10° ESE
Cosmos 2056 Rocket 3.6 18:56:35 10° S 19:01:56 68° ESE 19:07:19 10° NNE
Cosmos 1544 3.2 18:59:29 10° S 19:03:03 77° W 19:06:37 10° N
Cosmos 1536 Rocket 3.8 19:01:50 10° NNE 19:05:57 44° E 19:10:07 10° SSE
FengYun 1-2 T 4.4 19:03:34 10° SSE 19:08:58 52° ENE 19:14:24 10° N
GPS 2-04 Rocket1 4.0 19:08:34 10° W 19:11:52 34° NW 19:15:19 10° NNE
GP-B 3.4 19:08:28 10° NNE 19:12:39 42° E 19:16:51 10° SSE
Cosmos 1624 Rocket 4.1 19:08:05 10° SSW 19:13:19 84° WNW 19:18:30 10° N
Fermi 4.3 19:11:45 10° NW 19:15:35 41° NNE 19:18:31 16° E
USA 32 4.0 19:10:22 10° N 19:15:36 82° E 19:20:50 10° S
Cosmos 2322 Rocket 4.3 19:11:36 10° NW 19:16:27 31° WSW 19:21:21 10° SSW
Nadezhda 1 Rocket 4.2 19:13:36 10° S 19:19:40 73° W 19:25:41 10° N
Cosmos 2184 Rocket 4.0 19:14:00 10° N 19:20:14 63° E 19:26:30 10° SSE
SAR-Lupe-2 3.9 19:17:57 10° NNE 19:21:17 40° E 19:24:36 10° S
Cosmos 2082 3.6 19:20:49 10° S 19:26:30 71° ESE 19:32:10 10° NNE
ASTEX 1 4.0 19:22:11 10° NNE 19:26:35 33° E 19:30:59 10° SSE
Cosmos 1707 4.4 19:25:06 10° NE 19:26:38 16° ENE 19:26:38 16° ENE
Cosmos 2219 Rocket 2.9 19:25:02 10° NNE 19:29:54 30° ENE 19:33:33 16° SE
SL-4 R/B 2.5 19:27:41 10° SW 19:31:49 58° NW 19:35:36 10° NNE
ARIANE 5 DEB (SYLDA 5A) 4.5 19:30:29 10° WSW 19:34:16 40° SSE 19:43:03 19° ESE
Hubble Space Telescope 2.8 19:33:12 10° S 19:35:16 13° SSE 19:35:33 13° SE
Cosmos 2333 4.2 19:31:12 10° N 19:36:50 63° ENE 19:42:31 10° SSE
YAOGAN 6 3.0 19:33:24 10° S 19:36:59 65° W 19:40:35 10° NNW
Cosmos 1544 Rocket 4.3 19:33:09 10° SSE 19:37:04 31° E 19:41:00 10° NNE
Cosmos 1455 Rocket 3.4 19:33:05 10° SSE 19:37:12 40° E 19:41:20 10° NNE
CZ-2D R/B 3.6 19:35:23 15° SE 19:38:11 39° ENE 19:41:43 10° N
CZ-4 R/B 2.2 19:35:49 10° S 19:39:33 50° W 19:43:17 10° NNW
Cosmos 2227 Rocket 3.5 19:35:53 10° SW 19:41:11 42° WNW 19:46:30 10° N
Cosmos 1610 Rocket 4.5 19:35:23 10° N 19:41:40 63° E 19:47:57 10° SSE
ATLAS 2AS CENTAUR R/B 3.5 19:36:27 10° N 19:42:10 27° ENE 19:43:29 25° E
Cosmos 2360 Rocket 3.6 19:39:12 10° NW 19:44:26 40° WSW 19:49:41 10° S
Cosmos 2327 Rocket 4.3 19:38:23 10° N 19:44:28 77° E 19:50:32 10° S
Envisat 4.3 19:40:26 10° S 19:45:13 42° W 19:49:58 10° NNW
Cosmos 2322 3.9 19:42:43 10° NNW 19:48:24 74° WSW 19:54:04 10° S
COSMOS 2428 2.8 19:44:57 10° N 19:50:27 53° ENE 19:54:07 21° SE
Cosmos 2297 Rocket 4.1 19:46:28 10° SW 19:51:22 30° WNW 19:56:16 10° NNW
Lacrosse 5 2.6 19:46:29 10° SW 19:51:26 53° WNW 19:56:22 10° NNE
CZ-3 Stage 3 3.6 19:49:03 10° W 19:53:38 18° NW 19:55:58 10° N
Cosmos 1452 Rocket 3.3 19:50:57 10° S 19:56:11 78° E 20:01:25 10° NNE
CZ-3 Stage 3 3.5 19:51:17 10° WSW 19:56:39 29° NW 19:57:42 22° N
Cosmos 405 Rocket 4.2 19:58:19 10° SSW 20:01:44 36° W 20:05:07 10° NNW
GPS 2-15 Rocket1 4.2 19:58:07 10° W 20:02:23 35° NNW 20:03:43 29° NNE
ATLAS CENTAUR R/B 1.6 19:59:18 10° SSW 20:03:59 83° ESE 20:05:59 36° NNE
Cosmos 1939 Rocket 2.6 20:05:36 72° S 20:05:59 87° WSW 20:09:49 10° NNW
ARIANE 5 DEB (SYLDA) 4.4 20:05:15 10° WSW 20:11:03 32° SSW 20:11:50 30° S
Cosmos 2181 Rocket 4.2 20:06:39 10° S 20:12:47 71° W 20:18:59 10° N
Kakehashi 4.3 20:00:48 10° WNW 20:17:59 88° SSW 20:20:30 46° ESE
Aureole 1 Rocket 4.2 20:16:03 10° NW 20:18:31 28° W 20:18:31 28° W
Centaur AC-102 3.9 20:06:28 10° W 20:23:40 71° NNW 20:25:10 51° NE
Ariane Rocket 3.5 20:23:19 14° S 20:27:31 58° WSW 20:32:28 10° NNW
CZ-3B R/B 3.5 20:08:27 10° SW 20:28:53 63° SSE 20:32:19 49° ESE
Ariane H10 3.7 20:27:47 10° W 20:30:43 70° SW 20:30:43 70° SW
COSMOS 2455 4.4 20:26:46 10° NW 20:32:04 33° WSW 20:37:21 10° S
Cosmos 2341 Rocket 3.9 20:29:43 10° N 20:35:54 83° W 20:36:54 65° SSW
Cosmos 1818 4.4 20:34:35 10° SSW 20:38:04 41° SW 20:38:04 41° SW
Cosmos 2237 Rocket 4.2 20:37:42 10° N 20:38:53 16° N 20:38:53 16° N
Atlas Centaur 2 4.1 20:39:45 10° SW 20:39:58 11° SW 20:39:58 11° SW
Cosmos 2333 Rocket 3.4 20:38:26 10° NW 20:43:44 40° WSW 20:46:34 24° SSW
Gbstr 26 Del rocket 4.2 20:40:22 10° SW 20:45:17 58° WNW 20:45:17 58° WNW
NOSS 3-4 (A) 4.4 20:42:33 10° NNW 20:48:14 51° N 20:48:14 51° N
NOSS 3-4 (C) 4.4 20:42:40 10° NNW 20:48:14 49° N 20:48:14 49° N
ADEOS Rocket 4.0 20:43:47 10° N 20:51:23 61° WNW 20:58:53 10° SSW
ATLAS 2AS CENTAUR R/B 4.3 21:26:56 10° NW 21:31:01 27° W 21:31:01 27° W
